• In Uzbekistan
  • List of Countries
  • For 7 days
  • Water Temperature
  • Satellite Maps
  • Weather Map
  • Weather Widgets
  • user-avatar
    Login

    Hourly Weather Mohale's Hoek

    Today, 15 December, Friday

    Time Temperature Precipitation Wind Pressure Humidity
    00:00 +14°C° 0 mm 1 mps 632 mmHg 43%
    01:00 +13°C° 0 mm 1 mps 632 mmHg 44%
    02:00 +11°C° 0 mm 0 mps 632 mmHg 44%
    03:00 +11°C° 0 mm 0 mps 631 mmHg 44%
    04:00 +10°C° 0 mm 0 mps 631 mmHg 44%
    05:00 +10°C° 0 mm 0 mps 631 mmHg 45%
    06:00 +13°C° 0 mm 0 mps 632 mmHg 37%
    07:00 +16°C° 0 mm 0 mps 633 mmHg 30%
    08:00 +21°C° 0 mm 1 mps 635 mmHg 27%
    09:00 +21°C° 0 mm 2 mps 635 mmHg 24%
    10:00 +24°C° 0 mm 2 mps 635 mmHg 22%
    11:00 +25°C° 0 mm 2 mps 635 mmHg 19%
    12:00 +26°C° 0 mm 3 mps 635 mmHg 18%
    13:00 +27°C° 0 mm 3 mps 635 mmHg 17%
    14:00 +28°C° 0 mm 3 mps 635 mmHg 15%
    15:00 +29°C° 0 mm 3 mps 634 mmHg 15%
    16:00 +29°C° 0 mm 3 mps 634 mmHg 15%
    17:00 +29°C° 0 mm 3 mps 634 mmHg 15%
    18:00 +27°C° 0 mm 2 mps 633 mmHg 19%
    19:00 +24°C° 0 mm 1 mps 633 mmHg 22%
    20:00 +22°C° 0 mm 1 mps 632 mmHg 26%
    21:00 +21°C° 0 mm 1 mps 632 mmHg 26%
    22:00 +21°C° 0 mm 1 mps 632 mmHg 26%
    23:00 +20°C° 0 mm 1 mps 632 mmHg 27%

    Tomorrow, 16 December, Saturday

    Time Temperature Precipitation Wind Pressure Humidity
    00:00 +20°C° 0 mm 1 mps 632 mmHg 27%
    01:00 +19°C° 0 mm 1 mps 632 mmHg 28%
    02:00 +19°C° 0 mm 1 mps 631 mmHg 29%
    03:00 +18°C° 0 mm 2 mps 631 mmHg 30%
    04:00 +17°C° 0 mm 2 mps 631 mmHg 31%
    05:00 +17°C° 0 mm 2 mps 632 mmHg 32%
    06:00 +19°C° 0 mm 3 mps 632 mmHg 34%
    07:00 +22°C° 0 mm 4 mps 633 mmHg 36%
    08:00 +25°C° 0 mm 5 mps 634 mmHg 38%
    09:00 +26°C° 0 mm 5 mps 634 mmHg 36%
    10:00 +28°C° 0 mm 6 mps 634 mmHg 34%
    11:00 +29°C° 0 mm 6 mps 635 mmHg 32%
    12:00 +32°C° 0 mm 6 mps 634 mmHg 28%
    13:00 +33°C° 0 mm 7 mps 634 mmHg 24%
    14:00 +34°C° 0 mm 7 mps 634 mmHg 20%
    15:00 +33°C° 0 mm 6 mps 634 mmHg 20%
    16:00 +32°C° 0 mm 6 mps 634 mmHg 20%
    17:00 +30°C° 0 mm 5 mps 634 mmHg 21%
    18:00 +28°C° 0.2 mm 5 mps 633 mmHg 29%
    19:00 +25°C° 0.2 mm 4 mps 633 mmHg 37%
    20:00 +22°C° 0.2 mm 3 mps 633 mmHg 45%
    21:00 +21°C° 0.7 mm 3 mps 633 mmHg 52%
    22:00 +20°C° 0.7 mm 3 mps 633 mmHg 59%
    23:00 +19°C° 0.7 mm 3 mps 633 mmHg 66%

    Day after tomorrow, 17 December, Sunday

    Time Temperature Precipitation Wind Pressure Humidity
    00:00 +19°C° 0.2 mm 3 mps 633 mmHg 68%
    01:00 +18°C° 0.2 mm 2 mps 633 mmHg 70%
    02:00 +18°C° 0.2 mm 2 mps 632 mmHg 72%
    03:00 +18°C° 0 mm 2 mps 632 mmHg 72%
    04:00 +18°C° 0 mm 2 mps 632 mmHg 71%
    05:00 +17°C° 0 mm 2 mps 632 mmHg 71%
    06:00 +19°C° 0.1 mm 2 mps 632 mmHg 64%
    07:00 +21°C° 0.1 mm 3 mps 633 mmHg 57%
    08:00 +23°C° 0.1 mm 4 mps 634 mmHg 50%
    09:00 +25°C° 0 mm 4 mps 634 mmHg 46%
    10:00 +26°C° 0 mm 4 mps 635 mmHg 42%
    11:00 +28°C° 0 mm 5 mps 635 mmHg 38%
    12:00 +27°C° 0.9 mm 5 mps 634 mmHg 43%
    13:00 +26°C° 0.9 mm 5 mps 634 mmHg 47%
    14:00 +25°C° 0.9 mm 5 mps 633 mmHg 51%
    15:00 +25°C° 0.7 mm 5 mps 633 mmHg 50%
    16:00 +25°C° 0.7 mm 4 mps 632 mmHg 49%
    17:00 +25°C° 0.7 mm 3 mps 632 mmHg 48%
    18:00 +24°C° 0 mm 3 mps 632 mmHg 51%
    19:00 +22°C° 0 mm 3 mps 632 mmHg 54%
    20:00 +21°C° 0 mm 2 mps 632 mmHg 57%
    21:00 +21°C° 0.1 mm 2 mps 632 mmHg 60%
    22:00 +20°C° 0.1 mm 2 mps 632 mmHg 63%
    23:00 +21°C° 0.1 mm 1 mps 632 mmHg 66%

    18 December, Monday

    Time Temperature Precipitation Wind Pressure Humidity
    00:00 +21°C° 0.3 mm 1 mps 631 mmHg 67%
    01:00 +21°C° 0.3 mm 1 mps 631 mmHg 69%
    02:00 +21°C° 0.3 mm 1 mps 631 mmHg 70%
    03:00 +20°C° 0.2 mm 1 mps 630 mmHg 72%
    04:00 +20°C° 0.2 mm 1 mps 630 mmHg 73%
    05:00 +20°C° 0.2 mm 1 mps 630 mmHg 74%
    06:00 +20°C° 1.8 mm 1 mps 630 mmHg 75%
    07:00 +20°C° 1.8 mm 1 mps 630 mmHg 76%
    08:00 +20°C° 1.8 mm 1 mps 630 mmHg 77%
    09:00 +19°C° 1.1 mm 2 mps 630 mmHg 74%
    10:00 +20°C° 1.1 mm 3 mps 630 mmHg 71%
    11:00 +21°C° 1.1 mm 4 mps 630 mmHg 68%
    12:00 +21°C° 0.7 mm 5 mps 630 mmHg 64%
    13:00 +22°C° 0.7 mm 5 mps 630 mmHg 60%
    14:00 +23°C° 0.7 mm 5 mps 630 mmHg 56%
    15:00 +23°C° 0 mm 5 mps 630 mmHg 52%
    16:00 +25°C° 0 mm 5 mps 630 mmHg 47%
    17:00 +26°C° 0 mm 4 mps 630 mmHg 43%
    18:00 +24°C° 0 mm 3 mps 630 mmHg 49%
    19:00 +21°C° 0 mm 2 mps 630 mmHg 55%
    20:00 +21°C° 0 mm 1 mps 630 mmHg 62%
    21:00 +19°C° 0 mm 2 mps 630 mmHg 64%
    22:00 +19°C° 0 mm 2 mps 630 mmHg 67%
    23:00 +18°C° 0 mm 2 mps 630 mmHg 69%

    19 December, Tuesday

    Time Temperature Precipitation Wind Pressure Humidity
    00:00 +18°C° 0.2 mm 2 mps 630 mmHg 71%
    01:00 +18°C° 0.2 mm 2 mps 629 mmHg 73%
    02:00 +18°C° 0.2 mm 1 mps 629 mmHg 75%
    03:00 +18°C° 0.3 mm 1 mps 629 mmHg 77%
    04:00 +16°C° 0.3 mm 1 mps 629 mmHg 80%
    05:00 +16°C° 0.3 mm 1 mps 629 mmHg 82%
    06:00 +18°C° 0.1 mm 2 mps 629 mmHg 75%
    07:00 +19°C° 0.1 mm 2 mps 630 mmHg 67%
    08:00 +21°C° 0.1 mm 2 mps 631 mmHg 60%
    09:00 +23°C° 0 mm 4 mps 631 mmHg 51%
    10:00 +26°C° 0 mm 5 mps 631 mmHg 41%
    11:00 +27°C° 0 mm 6 mps 632 mmHg 31%
    12:00 +28°C° 0 mm 7 mps 631 mmHg 29%
    13:00 +29°C° 0 mm 8 mps 631 mmHg 27%
    14:00 +31°C° 0 mm 8 mps 631 mmHg 24%
    15:00 +29°C° 0 mm 8 mps 631 mmHg 25%
    16:00 +28°C° 0 mm 8 mps 631 mmHg 26%
    17:00 +28°C° 0 mm 7 mps 631 mmHg 27%
    18:00 +26°C° 0 mm 6 mps 631 mmHg 32%
    19:00 +23°C° 0 mm 4 mps 631 mmHg 38%
    20:00 +21°C° 0 mm 2 mps 631 mmHg 43%
    21:00 +20°C° 0 mm 2 mps 631 mmHg 49%
    22:00 +19°C° 0 mm 2 mps 631 mmHg 55%
    23:00 +18°C° 0 mm 2 mps 631 mmHg 61%

    20 December, Wednesday

    Time Temperature Precipitation Wind Pressure Humidity
    00:00 +17°C° 0 mm 2 mps 631 mmHg 64%
    01:00 +17°C° 0 mm 2 mps 631 mmHg 68%
    02:00 +16°C° 0 mm 2 mps 630 mmHg 71%
    03:00 +16°C° 0 mm 2 mps 630 mmHg 73%
    04:00 +15°C° 0 mm 1 mps 631 mmHg 75%
    05:00 +15°C° 0 mm 1 mps 631 mmHg 76%
    06:00 +18°C° 0 mm 1 mps 632 mmHg 66%
    07:00 +20°C° 0 mm 1 mps 632 mmHg 57%
    08:00 +22°C° 0 mm 1 mps 633 mmHg 47%
    09:00 +24°C° 0 mm 2 mps 633 mmHg 39%
    10:00 +26°C° 0 mm 3 mps 634 mmHg 32%
    11:00 +28°C° 0 mm 5 mps 634 mmHg 24%
    12:00 +29°C° 0 mm 5 mps 634 mmHg 24%
    13:00 +29°C° 0 mm 6 mps 633 mmHg 23%
    14:00 +30°C° 0 mm 6 mps 633 mmHg 22%
    15:00 +30°C° 0 mm 5 mps 633 mmHg 23%
    16:00 +29°C° 0 mm 5 mps 633 mmHg 24%
    17:00 +29°C° 0 mm 4 mps 633 mmHg 25%
    18:00 +28°C° 0 mm 3 mps 632 mmHg 29%
    19:00 +26°C° 0 mm 2 mps 632 mmHg 32%
    20:00 +25°C° 0 mm 1 mps 632 mmHg 36%
    21:00 +24°C° 0 mm 2 mps 632 mmHg 41%
    22:00 +23°C° 0 mm 2 mps 632 mmHg 46%
    23:00 +21°C° 0 mm 2 mps 632 mmHg 51%
    Show more